Regional Weather Roundup
Issued by NWS Charleston, SC

Current Version | Previous Version | Text Only | Print | Product List | Glossary Off
Versions: 1 2 3 4 5 6 7 8 9 10 11 12 13 14 15 16 17 18 19 20 21 22 23 24 25 26 27 28 29 30 31 32 33 34 35 36 37 38 39 40 41 42 43 44 45 46 47 48 49 50
000 ASUS42 KCHS 301213 RWRCHS REGIONAL WEATHER ROUNDUP NATIONAL WEATHER SERVICE CHARLESTON SC 800 AM EDT SAT JUL 30 2016 NOTE: "FAIR" INDICATES FEW OR NO CLOUDS BELOW 12,000 FEET WITH NO SIGNIFICANT WEATHER AND/OR OBSTRUCTIONS TO VISIBILITY. NOT ALL STATIONS ARE QUALITY CONTROLLED. USE DATA WITH CAUTION... ESPECIALLY DEWPOINT OBSERVATIONS. SCZ027-030-031-034>040-042>050-301300- ...SOUTHEAST SOUTH CAROLINA... CITY SKY/WX TMP DP RH WIND PRES REMARKS N CHARLESTON MOSUNNY 83 73 72 NW5 29.99R 6HR MIN TEMP: 81; 6HR MAX TEMP: 84; WATERFRONT PRK N/A 83 75 76 W6 29.96R HX 90 MOUNT PLEASANT FAIR 82 75 78 W3 29.99R JOHNS ISLAND FAIR 84 75 74 W7 30.00R HX 92 PINOPOLIS N/A 81 77 89 SW6 29.92R MONCKS CORNER FAIR 79 73 83 CALM 30.00R SUMMERVILLE PTSUNNY 79 79 100 W5 30.00S BEAUFORT MCAS SUNNY 83 71 67 W7 30.01R 6HR MIN TEMP: 79; 6HR MAX TEMP: 83; BEAUFORT ARPT FAIR 82 72 69 W8 30.00R HILTON HEAD IS SUNNY 84 73 70 W6 30.01R HX 91 WALTERBORO SUNNY 81 75 83 CALM 30.01R ALLENDALE FAIR 79 72 78 CALM 30.01R ...SOUTHERN MIDLANDS AND PEE DEE... CITY SKY/WX TMP DP RH WIND PRES REMARKS GEORGETOWN FAIR 81 75 83 W8 29.99R KINGSTREE FAIR 79 73 83 CALM 29.99R ORANGEBURG SUNNY 78 72 81 SW3 30.01R 6HR MIN TEMP: 74; 6HR MAX TEMP: 80; BARNWELL NOT AVBL AIKEN FAIR 77 70 78 SW3 30.05R MANNING FAIR 79 63 57 CALM 30.00R COLUMBIA MOSUNNY 80 70 71 CALM 30.00R 6HR MIN TEMP: 76; 6HR MAX TEMP: 82; SUMTER SUNNY 80 73 79 SW7 29.97R HAZE 6HR MIN TEMP: 75; 6HR MAX TEMP: 80; FLORENCE SUNNY 78 75 90 SW3 29.98R 6HR MIN TEMP: 75; 6HR MAX TEMP: 78; MYRTLE BEACH MOSUNNY 82 72 69 W10 29.99R N MYRTLE BEACH SUNNY 84 78 82 W7 29.97R HX 95 6HR MIN TEMP: 80; 6HR MAX TEMP: 84; $$ GAZ063-065-086>088-099>101-113>116-118-119-134>141-150-301300- ...SOUTHEAST GEORGIA... CITY SKY/WX TMP DP RH WIND PRES REMARKS SAVANNAH ARPT SUNNY 80 71 74 W7 30.02R 6HR MIN TEMP: 77; 6HR MAX TEMP: 83; HUNTER AAF SUNNY 80 75 83 W9 30.00R 6HR MIN TEMP: 78; 6HR MAX TEMP: 82; FORT STEWART NOT AVBL STATESBORO SUNNY 81 74 80 W3 30.02R SYLVANIA NOT AVBL CLAXTON FAIR 79 74 84 W3 30.02R HAZE ...CSRA...CENTRAL AND FAR SOUTHEAST GEORGIA... CITY SKY/WX TMP DP RH WIND PRES REMARKS THOMSON NOT AVBL AUGUSTA-BUSH SUNNY 78 72 81 S3 30.00R 6HR MIN TEMP: 72; 6HR MAX TEMP: 78; AUGUSTA-DANIEL MOSUNNY 81 70 69 CALM 30.02R SWAINSBORO FAIR 77 72 83 CALM 30.04R VIDALIA SUNNY 79 72 78 CALM 30.04R EASTMAN FAIR 79 66 64 CALM 30.06R HAZLEHURST FAIR 81 76 86 CALM 30.03R ALMA SUNNY 78 73 84 W3 30.03R 6HR MIN TEMP: 73; 6HR MAX TEMP: 80; WAYCROSS SUNNY 80 77 91 W5 30.04R JESUP FAIR 77 75 94 CALM 30.03R BAXLEY FAIR 79 79 100 W3 30.03R BRUNSWICK SUNNY 81 77 89 W6 30.03R SAINT SIMONS SUNNY 81 75 82 W6 30.02R 6HR MIN TEMP: 79; 6HR MAX TEMP: 83; $$ SCZ027-028-034-036>038-045-046-048>050-GAZ119-141-301300- ...LAKE AND SUPPLEMENTAL COASTAL OBSERVATIONS... STATION/POSITION TIME TEMP WIND PRES WAVE SWELL AIR SEA DIR/SP/G HT/PER HT/PER/DIR (UTC) (F) (DEG/KT/KT) (MB) (FT/S) (FT/S/D) WINYAH BAY NOT AVBL LAKE MURRAY 1100 80 250/ 4/ 7 1014.6R ACE BASIN NERRS NOT AVBL FORT PULASKI 1100 81 87 250/ 6/ 9 1016.0R SAPELO ISLAND 1100 80 270/ 6 1016.0R $$ ANZ835-935-AMZ111-154-330-350-352-354-370-450-454-472-301300- ...C-MAN AND BUOY OBSERVATIONS... STATION/POSITION TIME TEMP WIND PRES WAVE SWELL AIR SEA DIR/SP/G HT/PER HT/PER/DIR (UTC) (F) (DEG/KT/KT) (MB) (FT/S) (FT/S/D) BUOY 41004 1150 86 86 240/ 14/ 16 1014.7R 4/ 6 2/160/ 8 BUOY 41008 1150 84 86 280/ 10/ 12 1016.2R 3/ 4 2/140/ 9 FOLLY BEACH CMAN 1200 83 270/ 5/ 9 1015.8R CAPERS NEARSHORE 1108 85 85 280/ 12/ 16 1014.4R FRIPP NEARSHORE 1108 84 87 280/ 14/ 16 1014.6R STATION/POSITION TIME TEMP WIND PRES WAVE SWELL AIR SEA DIR/SP/G HT/PER HT/PER/DIR (UTC) (F) (DEG/KT/KT) (MB) (FT/S) (FT/S/D) 5E ST. MARYS GA 1101 85 N/A 2/ 4 FRYING PAN BUOY 1100 85 85 240/ 16/ 19 1014.3R BUOY 41025 1150 85 86 80/ 4/ 4 1015.0R 2/ 6 2/210/ 6 CAPE LOOKOUT NC 1200 82 140/ 2/ 2 1014.8R BUOY 41002 1150 84 84 210/ 10/ 12 1017.6R 3/ 6 2/230/ 6 BUOY 41010 1120 85 87 220/ 8/ 10 1017.5R ST AUGUSTINE FL 1200 80 84 220/ 6/ 7 1018.6R $$

USA.gov is the U.S. government's official web portal to all federal, state and local government web resources and services.